Location: Newark
(45.2500°N, 7.5833°E)
Time: 18:48:26
(UTC+00:00)

A-11 Canister half - Pass Details

Date: 28 January 2020
Orbit: 1525 x 1684 km, 47.3° (Epoch: 17 February)

Event Time Altitude Azimuth Distance (km) Brightness Sun altitude
Rises 19:17:13 0° 274° (W) 4,691 12.8 -29.3°
Reaches altitude 10° 19:20:15 10° 276° (W) 3,721 11.9 -29.9°
Maximum altitude 19:29:42 80° 4° (N) 1,600 8.9 -31.5°
Enters shadow 19:31:25 64° 71° (ENE) 1,719 8.9 -31.8°
Drops below altitude 10° 19:39:29 10° 92° (E) 3,838 - -33.2°
Sets 19:42:39 0° 93° (E) 4,845 - -33.8°
